100  
ASUS41 KBOX 070104  
RWRBOX  
 
REGIONAL WEATHER ROUNDUP  
NATIONAL WEATHER SERVICE BOSTON/NORTON MA  
900 PM EDT MON APR 06 2020  
 
NOTE: "FAIR" INDICATES FEW OR NO CLOUDS BELOW 12,000 FEET WITH NO  
SIGNIFICANT WEATHER AND/OR S TO VISIBILITY
.  
 
MAZALL-070200-  
EASTERN MASSACHUSETTS  
 
CITY SKY/WX TMP DP RH WIND PRES REMARKS
 
BOSTON FAIR 54 12 18 NW5 29.90R  
BEVERLY FAIR 49 15 25 CALM 29.88R  
LAWRENCE FAIR 49 18 29 CALM 29.90R  
BEDFORD FAIR 52 17 25 CALM 29.88S  
BLUE HILL N/A 52 14 22 CALM 29.89R  
NORWOOD FAIR 52 33 48 S8 29.90R  
MARSHFIELD FAIR 46 36 66 SW6 29.91S  
PLYMOUTH FAIR 44 36 73 S5 29.92R  
TAUNTON FAIR 41 36 82 CALM 29.92R  
NEW BEDFORD FAIR 44 38 79 S6 29.92R  

 
 
MAZALL-070200-  
CAPE COD AND THE ISLANDS  
 
CITY SKY/WX TMP DP RH WIND PRES REMARKS
 
FALMOUTH CLEAR 43 37 81 SW9 29.93R  
HYANNIS FAIR 46 35 65 SW10 29.91R  
CHATHAM FAIR 43 34 70 SW7 29.94R  
PROVINCETOWN FAIR 44 38 79 S9 29.93R  
NANTUCKET FAIR 42 38 85 SW9 29.94R  
MARTHAS VNYRD FAIR 43 39 86 SW12 29.93R  

 
 
MAZALL-070200-  
CENTRAL AND WESTERN MASSACHUSETTS  
 
CITY SKY/WX TMP DP RH WIND PRES REMARKS
 
WORCESTER FAIR 49 19 30 W8 29.91R  
FITCHBURG FAIR 47 26 44 CALM 29.91R  
ORANGE FAIR 53 20 27 W9 29.92R  
SPRINGFIELD PTCLDY 53 17 24 NW10 29.92R  
WESTFIELD FAIR 52 17 25 NW9 29.94R  
NORTH ADAMS FAIR 50 16 25 W15G24 29.93R  
PITTSFIELD FAIR 48 15 26 W15 29.93R  

 
 
RIZALL-070200-  
RHODE ISLAND  
 
CITY SKY/WX TMP DP RH WIND PRES REMARKS
 
PROVIDENCE FAIR 45 38 76 SE3 29.92R  
NEWPORT FAIR 46 39 76 SW6 29.91R  
BLOCK ISLAND FAIR 46 39 76 SW15 29.94R  
SMITHFIELD FAIR 45 36 70 W3 29.91R  
WESTERLY FAIR 51 38 60 SW5 29.93R  

 
 
CTZALL-070200-  
CONNECTICUT  
 
CITY SKY/WX TMP DP RH WIND PRES REMARKS
 
BRADLEY INTL FAIR 53 11 18 NW10 29.93R  
HARTFORD FAIR 57 14 18 NW12 29.94R  
BRIDGEPORT FAIR 52 40 63 S13 29.94R  
DANBURY FAIR 47 32 56 SW3 29.95R  
GROTON FAIR 47 42 83 W9 29.92R  
NEW HAVEN FAIR 51 36 56 S7 29.93R  
CHESTER FAIR 54 18 24 NW5 29.93R  
MERIDEN FAIR 50 31 48 N3 29.94R  
WILLIMANTIC FAIR 54 14 20 NW5 29.93R  
OXFORD FAIR 54 19 25 NW5 29.95R  

 
 
MEZ002-015-021-024-NHZ003-005-008-011-012-014-VTZ005-008-070200-  
NORTHERN NEW ENGLAND  
 
CITY SKY/WX TMP DP RH WIND PRES REMARKS
 
PORTLAND ME FAIR 50 11 20 CALM 29.88R  
BANGOR ME FAIR 46 19 34 W7 29.83R  
CONCORD NH FAIR 41 26 55 SE3 29.89R  
MANCHESTER NH FAIR 51 19 28 N3 29.88R  
NASHUA NH FAIR 45 27 49 W5 29.89S  
PORTSMOUTH NH PTCLDY 49 9 20 CALM 29.87R  
JAFFREY NH FAIR 39 35 86 S3 29.89R  
KEENE NH FAIR 40 29 64 S6 29.90R  
BURLINGTON VT CLOUDY 51 20 29 W7 29.91R  
MT. WASHINGTON MOCLDY 19 14 79 W51G66 N/A WCI -4  

 
 
NYZ052-076-070200-  
EASTERN NEW YORK  
 
CITY SKY/WX TMP DP RH WIND PRES REMARKS
 
ALBANY FAIR 52 9 17 NW12 29.97R  
NEW YORK CITY FAIR 60 22 23 NW12 29.95R  

 
 
ANZALL-070200-  
MARINE OBSERVATIONS  
 
STATION/POSITION TIME TEMP WIND PRES VSBY WAVE
 
AIR SEA DIR/SP/G HT/PER  
(UTC) (F) (DEG/KT/KT) (MB) (MI) (FT/S)  
BOSTON BUOY 0050 47 44 190/ 14/ 16 1011.6R 3/11  
BUZZARDS BAY 0000 200/ 21/ 22 1013.2F  
NANTUCKET SOUND NOT AVBL  
MASS BAY-STELLWA 0004 45 42 190/ 6/ 8 1009.9R 1 7/8 4/11  
ISLE OF SHOALS 0000 55 330/ 7/ 7 1011.3R  
S OF BLOCK IS 0030 45 N/A 3/11  

 
   
.....................KEY......................
 
 
SKY/WX - SKY CONDITION/PRESENT WEATHER  
TMP - TEMPERATURE IN FAHRENHEIT  
DWPT - DEWPOINT IN FAHRENHEIT  
RH - RELATIVE HUMIDITY IN PERCENT  
WIND - DIRECTION AND SPEED IN MPH  
PRES - MEAN SEA LEVEL PRESSURE IN INCHES OF HG  
WCI - WIND CHILL INDEX  
VSB - VISIBILITY IN MILES  
HX - HEAT INDEX  
TC - TEMPERATURE IN CELSIUS  
VRB - VARIABLE WIND DIRECTION  
N/A - NOT AVAILABLE  
 
 
CLICK HERE TO GO TO PREVIOUS BULLETINS.

The Nexlab MA Page
The Nexlab RI Page
The Nexlab NH Page
The Nexlab CT Page Main Text Page